Location: Zagreb
(45.8000°N, 16.0000°E)
Time: 14:45:58
(UTC+02:00)

Transit 2A - Pass Details

Date: 15 August 2022
Orbit: 601 x 956 km, 66.7° (Epoch: 25 September)

Event Time Altitude Azimuth Distance (km) Brightness Sun altitude
Rises 20:29:01 0° 324° (NW) 2,861 10.2 -4.8°
Reaches altitude 10° 20:31:15 10° 321° (NW) 1,963 9.4 -5.1°
Maximum altitude 20:35:34 62° 241° (WSW) 705 6.1 -5.8°
Drops below altitude 10° 20:40:06 10° 161° (SSE) 2,058 7.8 -6.5°
Enters shadow 20:42:19 - 158° (SSE) 2,943 8.6 -6.8°
Sets 20:42:29 0° 158° (SSE) 3,013 - -6.9°
